Regional Weather Roundup
Issued by NWS

Home | Current Version | Previous Version | Text Only | Print | Product List | Glossary On
Versions: 1 2 3 4 5 6 7 8 9 10 11 12 13 14 15 16 17 18 19 20 21 22 23 24 25 26 27 28 29 30 31 32 33 34 35 36 37 38 39 40 41 42 43 44 45 46 47 48 49 50
000
ASUS43 KDTX 180110
RWRMI
MICHIGAN HOURLY REGIONAL WEATHER ROUNDUP
NATIONAL WEATHER SERVICE DETROIT/PONTIAC MI
800 PM EST WED DEC 17 2014

NOTE: "FAIR" INDICATES FEW OR NO CLOUDS BELOW 12,000 FEET WITH NO
SIGNIFICANT WEATHER AND/OR OBSTRUCTION TO VISIBILITY.

MIZ047>049-052>055-059>063-066>070-074>076-081>083-180200-
SOUTHEAST LOWER MICHIGAN

CITY           SKY/WX    TMP DP  RH WIND       PRES   REMARKS
ADRIAN         CLOUDY    29  18  63 NW13      30.17S WCI  19
ALMA           CLOUDY    27  21  79 W10G17    30.13S WCI  17
ANN ARBOR      CLOUDY    28  17  63 W18       30.14R WCI  15
BAD AXE        LGT SNOW  28  26  92 W15       30.05R WCI  16
CARO           CLOUDY    28  22  81 W14G22    30.08R WCI  16
DETROIT CITY   CLOUDY    31  18  58 NW9G24    30.13R WCI  23
DETROIT        FLURRIES  30  19  64 W14G24    30.14S WCI  20
FLINT          PTCLDY    28  18  66 W12       30.12S WCI  18
GROSSE ILE     CLOUDY    30  19  64 W15G21    30.13S WCI  19
HILLSDALE      CLOUDY    28  23  82 W13       30.15R WCI  17
HOWELL         CLOUDY    27  19  74 W14G20    30.13S WCI  15

CITY           SKY/WX    TMP DP  RH WIND       PRES   REMARKS
JACKSON        CLOUDY    27  19  72 NW12G21   30.15R WCI  17
LAMBERTVILLE   CLOUDY    32  21  64 W6G17     30.17S WCI  26
LANSING        CLOUDY    27  18  69 W15       30.16R WCI  15
LAPEER         CLOUDY    28  21  77 W12G17    30.10R WCI  17
MASON          CLOUDY    26  19  73 W12       30.15S WCI  16
MONROE         CLOUDY    30  19  64 NW15G23   30.14S WCI  19
MT. CLEMENS    CLOUDY    28  19  69 W14G21    30.10R WCI  17
PONTIAC        FLURRIES  27  17  66 W17       30.10R WCI  14
PORT HOPE        N/A     29  25  85 W9G17     30.01R WCI  20
PORT HURON     CLOUDY    28  21  74 W8G16     30.09S WCI  20
TRI CITIES     CLOUDY    28  21  75 W14       30.10S WCI  17
TROY           CLOUDY    31  20  63 W14       30.14R WCI  21
SAGINAW HB     CLOUDY    30  23  74 W15G22    30.10R WCI  19
$$
MIZ043>046-050>051-056>058-064>065-071>073-077>080-180200-
SOUTHWEST LOWER MICHIGAN

CITY           SKY/WX    TMP DP  RH WIND       PRES   REMARKS
BATTLE CREEK   CLOUDY    29  20  69 NW9G20    30.18R WCI  20
BENTON HARBOR  CLOUDY    28  19  69 NW8       30.22S WCI  20
BIG RAPIDS     CLOUDY    27  26  93 W10       30.11S WCI  18
COLDWATER      CLOUDY    28  20  73 W12G18    30.18R WCI  17
FREMONT        CLOUDY    28  22  80 W9        30.16S WCI  19
HOLLAND        CLOUDY    31  19  61 NW10G16   30.20R WCI  22
GRAND RAPIDS   FLURRIES  28  19  69 W12       30.17S WCI  18
IONIA          CLOUDY    28  20  72 W10G16    30.15S WCI  19
KALAMAZOO      CLOUDY    29  19  66 NW12      30.19R WCI  19
LUDINGTON      CLOUDY    31  24  74 NW10G16   30.17S WCI  22
MARSHALL       CLOUDY    27  19  72 NW8       30.16S WCI  19
MOUNT PLEASANT CLOUDY    27  23  82 W9        30.10R WCI  18
MUSKEGON       FLURRIES  30  20  66 W14G23    30.19R WCI  19
SOUTH HAVEN    CLOUDY    30  21  68 NW12      30.21F WCI  21
$$
MIZ016>042-180200-
NORTHERN LOWER MICHIGAN

CITY           SKY/WX    TMP DP  RH WIND       PRES   REMARKS
ALPENA         CLOUDY    26  23  88 NW9       30.03R WCI  17
BEAVER ISLAND  CLOUDY    27  25  90 N10G16    30.10S WCI  17
BELLAIRE       LGT SNOW  29  26  89 NW3       30.09S
CADILLAC       CLOUDY    27  25  93 W10       30.05S FOG     WCI  17
CHARLEVOIX     CLOUDY    28  26  92 N15G21    30.11R WCI  17
FRANKFORT      CLOUDY    31  26  83 NW9G18    30.13R WCI  22
GAYLORD        LGT SNOW  24  22  91 VRB7      30.02R FOG     WCI  16
GRAYLING       MOCLDY    28  25  89 NW9       30.04R WCI  19
HARBOR SPRINGS CLOUDY    26  23  87 N7        30.07R WCI  18
HOUGHTON LAKE  LGT SNOW  27  24  89 W10       30.04R FOG     WCI  17
MANISTEE       CLOUDY    30  25  80 NW12G18   30.14S WCI  21
OSCODA         LGT SNOW  28  26  91 NW8       30.03R WCI  20
PELLSTON       CLOUDY    26  22  84 NW13      30.07R WCI  15
ROGERS CITY    LGT SNOW  27  25  94 NW13      30.05R WCI  16
TRAVERSE CITY  LGT SNOW  30  27  88 NW13      30.10R WCI  20
$$
MIZ007>008-015-180200-
EASTERN UPPER MICHIGAN

CITY           SKY/WX    TMP DP  RH WIND       PRES   REMARKS
KINROSS        CLOUDY    21  21 100 N10G17    30.07R WCI  10
MACKINAC ISLAN CLOUDY    25  24  96 N12G24    30.06R WCI  14
NEWBERRY       CLOUDY    24  23  96 N10G16    30.10R WCI  13
S. S. MARIE    FLURRIES  22  14  71 N10       30.08R WCI  11
MUNISING         N/A     31  25  78 N22       30.16R WCI  18
$$
MIZ004>006-011>014-085-180200-
CENTRAL UPPER MICHIGAN

CITY           SKY/WX    TMP DP  RH WIND       PRES   REMARKS
MANISTIQUE     CLOUDY    27  25  91 N15G21    30.12R WCI  15
ESCANABA       CLOUDY    28  21  74 N10G17    30.16R WCI  19
MENOMINEE      CLOUDY    27  19  74 NW8       30.19R WCI  18
SAWYER-GWINN   CLOUDY    25  23  93 N18G24    30.14R FOG     WCI  11
$$
MIZ001>003-009>011-084-180200-
WESTERN UPPER MICHIGAN

CITY           SKY/WX    TMP DP  RH WIND       PRES   REMARKS
IRON MOUNTAIN  CLOUDY    24  19  81 NW14      30.17R WCI  12
HOUGHTON       CLOUDY    24  17  74 N9        30.23R WCI  14
COPPER HARBOR    N/A     28  20  71 E20G26    30.26R WCI  15
IRONWOOD       CLOUDY    23  18  80 N7        30.23S WCI  15
$$

ABBREVIATIONS USED IN REMARKS
   TC - TEMPERATURE IN CELSIUS
  WCI - WIND CHILL INDEX
   HX - HEAT INDEX
  VSB - VISIBILITY




USA.gov is the U.S. government's official web portal to all federal, state and local government web resources and services.